TimeEDT,TemperatureF,Dew PointF,Humidity,Sea Level PressureIn,VisibilityMPH,Wind Direction,Wind SpeedMPH,Gust SpeedMPH,PrecipitationIn,Events,Conditions,WindDirDegrees,DateUTC
12:53 AM,50.0,48.0,93,30.27,10.0,NE,10.4,-,0.03,Rain,Light Rain,40,2013-05-26 04:53:00
1:53 AM,51.1,48.0,89,30.25,10.0,ENE,3.5,-,0.03,,Overcast,70,2013-05-26 05:53:00
2:53 AM,51.1,48.9,92,30.25,10.0,Calm,Calm,-,N/A,,Overcast,0,2013-05-26 06:53:00
3:53 AM,51.1,48.9,92,30.25,10.0,Calm,Calm,-,0.00,Rain,Light Rain,0,2013-05-26 07:53:00
4:53 AM,51.1,50.0,96,30.23,10.0,SE,3.5,-,0.00,,Overcast,140,2013-05-26 08:53:00
5:53 AM,52.0,50.0,93,30.25,10.0,ESE,3.5,-,N/A,,Overcast,120,2013-05-26 09:53:00
6:53 AM,52.0,50.0,93,30.25,10.0,SE,4.6,-,N/A,,Overcast,130,2013-05-26 10:53:00
7:53 AM,53.1,50.0,89,30.26,10.0,East,6.9,-,N/A,,Overcast,100,2013-05-26 11:53:00
8:53 AM,54.0,50.0,86,30.27,10.0,ESE,6.9,-,N/A,,Overcast,120,2013-05-26 12:53:00
9:53 AM,55.0,48.9,80,30.29,10.0,ESE,5.8,-,N/A,,Overcast,110,2013-05-26 13:53:00
10:53 AM,57.0,51.1,81,30.29,10.0,ESE,6.9,-,N/A,,Overcast,110,2013-05-26 14:53:00
11:53 AM,60.1,51.1,72,30.28,10.0,SE,6.9,-,N/A,,Overcast,140,2013-05-26 15:53:00
12:53 PM,62.1,51.1,67,30.27,10.0,SSE,11.5,-,N/A,,Mostly Cloudy,150,2013-05-26 16:53:00
1:53 PM,64.0,50.0,60,30.27,10.0,SSE,5.8,-,N/A,,Scattered Clouds,160,2013-05-26 17:53:00
2:53 PM,66.0,50.0,56,30.25,10.0,ESE,8.1,-,N/A,,Partly Cloudy,120,2013-05-26 18:53:00
3:53 PM,64.9,51.1,61,30.26,10.0,Calm,Calm,-,0.00,,Overcast,0,2013-05-26 19:53:00
4:53 PM,64.9,55.9,73,30.20,10.0,SE,6.9,-,0.00,,Partly Cloudy,130,2013-05-26 20:53:00
5:53 PM,68.0,53.1,59,30.17,10.0,SE,8.1,-,N/A,,Partly Cloudy,130,2013-05-26 21:53:00
6:53 PM,66.9,50.0,54,30.17,10.0,East,6.9,-,N/A,,Partly Cloudy,100,2013-05-26 22:53:00
7:53 PM,66.0,52.0,60,30.16,10.0,East,5.8,-,N/A,,Overcast,100,2013-05-26 23:53:00
8:53 PM,63.0,55.0,75,30.14,10.0,ESE,8.1,-,0.00,,Mostly Cloudy,120,2013-05-27 00:53:00
9:53 PM,62.1,55.9,80,30.15,10.0,SE,3.5,-,N/A,,Mostly Cloudy,130,2013-05-27 01:53:00
10:53 PM,63.0,54.0,72,30.15,10.0,SSE,11.5,-,N/A,,Overcast,150,2013-05-27 02:53:00
11:35 PM,60.8,57.2,88,30.15,2.5,SE,6.9,-,0.00,Rain-Thunderstorm,Heavy Rain,140,2013-05-27 03:35:00
11:45 PM,60.8,57.2,88,30.15,5.0,SE,6.9,-,N/A,Rain-Thunderstorm,Light Rain,140,2013-05-27 03:45:00
11:53 PM,60.1,57.9,93,30.14,9.0,ESE,6.9,-,N/A,Rain-Thunderstorm,Light Thunderstorms and Rain,110,2013-05-27 03:53:00